Content
SEND FEEDBACK

Daily
Averages
Monthly
Summary
United States of America

POTTS JUNCTION, GUAM


Home > North America > United States > Guam
Elevation: 360 feet     Latitude: 13 33N     Longitude: 144 50E

WEATHER
 
SELECT A DAY
Number of Records: 213,081;   Date Range: 1/1/95 - 9/30/14
 
SHARE

PRINT THIS DATA

[ ← Previous Day ]
WEATHER ALMANAC - FEBRUARY 23, 2013
[ Next Day → ]
[ °C ]   °F
Weather ElementAverageHighLow
Temperature80.5 °F84.2 °F (1:40 pm)76.8 °F (5:54 am)
Dewpoint73.2 °F75.4 °F (9:54 am)70 °F (2:54 pm)
Humidity78.7 %90 % (3:54 am)64 % (2:54 pm)
Barometer29.90 in29.96 in (9:07 am)29.85 in (3:54 pm)
Wind Speed11.4 mph17.3 mph (9:07 am)
Wind Gust24.2 mph (9:07 am)
Weather ElementAverage
Visibility9.7 mi
Wind DirectionENE (65 °)

Weather ElementTotal
Precipitation0.13 in
Cooling Degree Days15.5 (Base 65)
Growing Degree Days30.5 (Base 50)
Averaged from 26 records on February 23, 2013
WEATHER CONDITIONS BREAKOUT
WIND DIRECTION BREAKOUT
WEATHER BY HOUR - FEBRUARY 23, 2013
[ °C ]   °F
Local TimeTemperatureDewpointHumidityBarometerVisibilityWind DirectionWind SpeedGust SpeedPrecipitationEventsConditions
1:54 AM79.0 °F73.0 °F82 %29.88 in10.0 miENE (60°)9.2 mphPartly Cloudy
2:54 AM77.0 °F73.4 °F89 %29.87 in10.0 miENE (60°)6.9 mphMostly Cloudy
3:54 AM77.7 °F74.5 °F90 %29.86 in10.0 miENE (60°)5.8 mphClear
4:54 AM77.7 °F74.5 °F90 %29.86 in10.0 miNNE (20°)6.9 mphClear
5:54 AM76.8 °F73.4 °F89 %29.87 in10.0 miNNE (30°)4.6 mphClear
6:54 AM77.7 °F72.9 °F85 %29.89 in10.0 miENE (70°)8.1 mphClear
7:54 AM79.0 °F72.0 °F79 %29.91 in10.0 miEast (80°)11.5 mphClear
8:54 AM80.2 °F73.9 °F81 %29.93 in10.0 miENE (70°)10.4 mph0.00 inMostly Cloudy
9:07 AM80.6 °F73.4 °F79 %29.96 in4.0 miENE (60°)17.3 mph24.2 mph0.01 inRainRain
9:20 AM80.6 °F73.4 °F79 %29.96 in7.0 miEast (80°)11.5 mph0.05 inRainLight Rain
9:54 AM81.3 °F75.4 °F82 %29.94 in10.0 miENE (70°)11.5 mph0.07 inOvercast
10:54 AM83.8 °F75.4 °F76 %29.92 in10.0 miEast (80°)13.8 mph19.6 mphMostly Cloudy
11:54 AM84.0 °F75.0 °F74 %29.90 in10.0 miENE (70°)17.3 mph21.9 mphMostly Cloudy
12:54 PM82.9 °F73.4 °F73 %29.89 in10.0 miEast (80°)10.4 mph20.7 mphOvercast
1:40 PM84.2 °F71.6 °F66 %29.90 in10.0 miEast (80°)15.0 mphMostly Cloudy
1:54 PM83.8 °F71.6 °F66 %29.87 in10.0 miEast (90°)12.7 mphScattered Clouds
2:54 PM83.1 °F70.0 °F64 %29.86 in10.0 miENE (60°)17.3 mphScattered Clouds
3:54 PM82.9 °F72.7 °F71 %29.85 in10.0 miENE (70°)13.8 mphOvercast
4:54 PM82.0 °F72.7 °F73 %29.86 in10.0 miENE (60°)15.0 mphPartly Cloudy
5:54 PM81.0 °F72.9 °F76 %29.88 in10.0 miENE (70°)12.7 mphPartly Cloudy
6:54 PM80.4 °F73.0 °F78 %29.89 in10.0 miNE (50°)10.4 mphPartly Cloudy
7:54 PM79.7 °F73.4 °F81 %29.91 in10.0 miENE (60°)8.1 mphPartly Cloudy
8:54 PM79.9 °F73.2 °F80 %29.93 in10.0 miENE (60°)15.0 mphPartly Cloudy
9:54 PM79.3 °F73.0 °F81 %29.94 in10.0 miENE (60°)8.1 mphPartly Cloudy
10:54 PM79.0 °F72.9 °F81 %29.94 in10.0 miENE (70°)11.5 mphPartly Cloudy
11:54 PM79.0 °F72.7 °F81 %29.93 in10.0 miENE (70°)12.7 mphPartly Cloudy
Hourly data recorded from PGUM, located miles away from Potts Junction, Guam







STORIES FROM OUR PARTNERS